Powrót do katalogu

STARLINK-32236

AktywnyŁącznośćVLEO
NORAD 60418·PAYLOAD·🇺🇸 United States

Wystrzelony Aug 10, 2024 z Cape Canaveral Space Force Station

Loading…

Następne Przeloty (najbliższe 24 godziny)

TLE

ŚwieżeSource: CelesTrak SupGP

Epoka: Sep 14, 2026, 15:03 UTC

1 60418C 24141W   26257.62756944 -.00019222  00000+0 -56792-3 0  2572
2 60418  53.1584  81.1922 0001178  89.1141 190.0441 15.34400399    19

Śledź STARLINK-32236 w czasie rzeczywistym z AllMySat

Download on the App Store